GEFSMA_con_cape1000_204.txt.gz
Probability
3 3 3 3 0 0 0 0 0 0 0 3 3 0 0 10 3 6 19 32 58 61 58 45 35 32 35 35 35 32 26 29 35 42 35 29 32 23 19 19 16 23 13
0 0 0 0 0 0 0 0 0 0 0 0 0 0 0 6 6 13 16 32 52 65 58 52 45 42 35 35 35 32 35 29 35 45 39 35 26 32 23 16 23 13 19
0 0 0 0 0 0 0 0 0 0 0 0 0 0 0 3 3 13 16 23 35 52 68 58 55 52 48 42 35 42 42 35 52 39 26 23 42 29 26 23 26 29 19
0 0 0 0 0 0 0 0 0 0 0 0 3 3 3 3 6 6 10 6 16 19 45 65 61 65 52 52 55 45 48 45 45 48 39 26 26 29 32 23 26 23 23
0 0 0 0 0 0 0 0 0 0 0 3 3 3 3 3 0 0 0 3 6 13 16 19 48 65 52 52 55 48 48 48 48 42 29 23 19 29 23 19 13 16 16
0 0 0 0 0 0 0 0 0 3 3 3 3 3 0 0 0 0 0 3 6 3 3 3 19 26 45 55 55 55 52 52 55 48 39 32 32 26 23 19 16 13 13
0 0 0 0 3 3 0 0 0 3 3 3 3 0 0 0 0 0 0 0 0 0 0 0 6 6 19 29 45 52 58 52 55 52 45 39 29 32 26 16 16 13 6
3 6 3 0 3 3 3 3 3 3 3 3 3 0 0 0 0 0 0 0 0 0 0 0 3 10 10 10 6 23 42 42 32 35 39 45 32 19 19 19 19 16 10
6 10 6 6 3 3 3 3 3 3 3 3 0 0 0 0 0 0 0 0 0 0 0 0 0 0 6 6 6 3 19 29 35 35 35 32 19 13 10 6 13 13 6
6 10 10 6 6 6 6 6 6 6 6 6 0 0 0 0 0 0 0 0 0 0 0 0 0 0 0 0 0 0 3 6 23 29 23 23 16 10 10 10 13 10 10
10 13 13 6 6 6 6 10 10 3 3 3 0 0 0 0 0 0 0 0 0 0 0 0 0 3 3 0 0 0 0 3 3 6 16 16 19 16 13 10 6 10 13
10 10 16 16 6 6 6 6 6 3 3 3 0 0 0 0 0 0 0 0 0 0 0 0 0 0 3 3 0 0 0 0 0 3 3 3 13 13 19 13 13 13 10
10 13 10 13 6 10 10 6 10 3 3 3 3 0 0 0 0 0 0 0 0 0 3 3 3 0 3 3 3 0 0 0 0 0 0 3 3 6 6 10 10 10 10
16 19 13 16 10 10 10 10 10 6 6 3 3 3 0 0 0 0 0 0 0 3 3 3 3 0 0 0 0 0 0 0 0 0 0 0 0 3 3 3 3 3 3
19 19 16 16 16 13 13 10 6 6 6 6 3 6 0 0 0 0 0 0 0 3 3 3 0 0 0 3 0 3 0 0 0 0 0 0 0 0 0 0 0 0 0
23 23 19 23 19 13 10 6 6 6 6 6 3 3 3 3 3 0 0 0 0 3 3 3 0 0 0 0 0 0 3 0 0 0 0 0 0 0 0 0 0 0 0
23 26 26 26 19 16 6 6 6 6 6 10 10 3 6 3 0 0 0 0 0 0 0 0 0 0 0 0 0 0 3 3 3 0 0 0 0 0 0 0 0 0 0
26 26 26 23 19 16 13 10 10 10 10 10 6 3 3 3 10 10 0 0 0 0 0 3 0 0 0 0 0 0 0 0 3 0 0 0 0 0 0 0 0 0 0
23 23 23 23 16 16 10 10 10 6 6 6 6 6 6 10 10 10 3 3 0 0 0 0 0 0 0 0 0 0 0 0 0 0 0 0 0 0 0 0 0 0 0
23 23 19 19 16 13 10 6 6 6 6 6 6 6 10 6 6 6 3 3 3 3 0 0 0 0 0 0 0 0 0 0 0 0 0 0 0 0 0 0 0 0 0
16 19 19 19 10 10 10 10 6 6 6 6 10 6 3 3 3 3 3 3 3 3 3 3 0 3 0 0 0 0 0 0 0 0 0 0 0 0 0 0 0 0 0
16 13 13 16 10 10 6 6 6 10 10 10 3 3 3 3 3 3 0 0 0 0 3 3 3 3 3 3 0 0 0 0 0 0 0 0 0 0 0 0 0 0 0
13 13 10 10 6 6 6 6 3 3 6 6 3 3 3 3 3 0 0 0 0 0 0 0 0 0 3 3 0 0 0 0 0 0 0 0 0 0 0 0 0 0 0
13 13 10 6 6 6 6 3 0 0 0 3 3 3 3 3 0 0 0 0 0 0 0 0 0 0 0 0 0 0 0 0 0 0 0 0 0 0 0 0 0 0 0
13 10 10 6 6 6 6 6 0 3 3 3 3 3 3 0 0 0 0 0 0 0 0 0 0 0 0 0 0 0 0 0 0 0 0 0 0 0 0 0 0 0 0
13 10 10 6 6 6 6 6 0 3 3 3 3 0 0 0 0 0 0 0 0 0 0 0 0 0 0 0 0 0 0 0 0 0 0 0 0 0 0 0 0 0 0

GEFSMA_con_cape1000_210.txt.gz
Probability
48 35 68 74 48 39 52 65 42 45 39 35 26 23 16 19 23 26 42 48 52 48 42 45 42 39 29 32 35 35 32 26 29 29 23 26 26 13 13 16 16 10 13
52 45 65 68 48 35 35 45 39 48 35 42 29 26 23 23 39 29 29 48 48 55 48 45 39 42 32 35 35 39 39 32 39 32 29 29 29 26 16 16 13 13 10
58 52 48 52 48 45 55 52 42 32 39 26 32 26 26 35 35 32 32 42 48 52 68 58 48 52 42 42 39 42 39 35 45 39 32 32 32 26 19 19 13 13 19
55 55 48 42 58 45 42 52 45 32 39 29 29 35 35 42 32 29 23 35 39 35 52 68 61 55 55 52 52 48 39 42 52 52 39 29 32 32 35 16 16 16 23
58 52 61 68 65 55 52 48 39 45 48 52 32 52 29 35 29 26 26 23 32 35 45 58 58 55 48 48 48 48 45 45 45 35 32 29 26 29 29 19 16 13 16
58 55 61 65 45 52 61 58 71 71 77 58 29 32 42 45 42 26 26 29 32 26 26 42 52 42 52 55 55 52 42 42 42 45 39 29 26 29 26 16 16 16 10
68 65 45 65 74 65 68 48 65 55 52 58 42 45 39 29 26 42 29 29 26 26 35 35 48 58 58 42 45 48 42 45 42 35 35 35 32 39 26 19 10 3 3
65 48 68 65 65 77 61 61 74 61 45 42 42 39 32 19 35 16 26 32 29 32 26 29 45 65 58 58 29 26 42 42 39 32 39 32 32 29 19 13 19 16 10
55 58 65 55 68 61 68 74 71 68 61 45 35 35 45 29 29 16 19 19 29 32 29 32 32 48 52 65 55 19 26 39 32 32 32 32 26 19 19 16 16 10 10
58 58 55 61 65 58 71 65 55 74 71 61 52 52 39 32 29 19 3 16 19 26 32 16 23 35 39 35 32 19 23 23 23 29 29 29 23 19 13 10 10 13 10
58 61 58 61 68 65 58 61 68 68 71 68 55 55 45 45 23 42 23 29 23 23 23 26 32 29 26 26 32 26 10 3 3 16 16 16 16 19 19 10 10 10 10
58 52 52 61 68 55 58 58 65 55 65 61 61 58 52 48 45 42 45 39 29 19 10 23 26 26 29 26 26 6 10 0 0 3 3 3 13 16 16 16 13 13 10
52 55 48 58 55 58 52 55 61 55 58 58 61 61 39 32 35 45 42 32 26 19 19 16 19 19 10 16 23 6 6 0 0 0 0 0 3 3 10 13 16 16 13
48 52 48 48 48 48 48 52 48 52 55 61 48 65 61 42 32 35 39 39 23 19 19 16 13 6 13 13 13 3 16 0 0 0 0 0 0 0 3 3 6 6 6
52 48 45 42 35 42 42 42 39 45 42 48 29 39 42 39 29 35 35 35 26 23 19 16 13 6 10 13 3 16 16 3 0 0 0 0 0 0 0 0 3 3 0
52 48 48 39 35 35 39 42 39 35 35 29 39 35 39 35 32 29 29 32 32 32 23 6 13 10 19 3 0 10 13 3 0 0 0 0 0 0 0 0 0 0 0
48 55 48 39 35 35 32 35 35 35 23 29 29 29 35 32 23 26 26 29 26 29 13 13 16 13 23 19 16 16 10 13 3 0 0 0 0 0 0 0 0 0 0
52 45 39 42 32 32 32 35 32 29 29 23 23 23 23 23 32 32 26 26 29 35 16 19 19 19 13 13 13 13 3 3 3 0 0 0 0 0 0 0 0 0 0
48 48 39 35 35 32 29 26 26 26 29 23 26 23 19 19 29 32 35 29 26 16 23 19 16 16 13 10 10 6 3 6 3 0 0 0 0 0 0 0 0 0 0
45 42 39 35 35 29 26 26 26 26 23 23 23 23 19 19 23 29 29 29 23 23 19 16 13 10 10 10 6 3 3 10 6 3 3 0 0 0 0 0 0 0 0
39 32 32 32 32 32 23 23 19 19 29 29 29 29 23 13 10 16 10 19 19 16 19 13 10 13 10 10 10 6 6 10 6 6 6 3 3 6 0 0 0 0 0
39 35 32 32 32 19 10 10 16 19 23 29 26 23 19 10 6 3 0 0 3 10 13 13 6 10 10 6 10 10 10 6 6 6 6 3 3 3 3 3 0 0 0
42 35 32 32 26 13 10 6 10 19 26 26 26 23 6 6 6 6 3 0 0 0 0 6 3 6 6 3 3 3 10 6 6 6 3 3 3 3 3 0 0 0 0
42 35 29 29 29 16 10 6 3 16 23 23 23 16 10 6 6 6 6 6 6 6 0 0 3 3 3 6 6 3 3 3 6 6 3 0 0 0 0 0 0 0 0
32 29 23 19 19 13 6 3 0 19 23 23 19 16 13 10 3 3 3 6 6 3 0 0 0 0 0 0 0 0 3 3 0 0 3 0 3 0 0 0 0 0 0
32 19 19 23 19 13 3 3 0 16 23 19 19 10 3 3 3 3 6 6 6 6 3 0 0 0 0 0 0 0 3 3 3 0 0 3 0 0 0 0 0 0 0

GEFSMA_con_cape1000_216.txt.gz
Probability
84 90 94 94 87 90 84 81 77 77 71 68 42 32 35 26 26 26 29 58 68 68 61 52 48 35 32 29 29 29 32 26 29 35 29 19 13 16 13 13 13 13 13
81 87 90 84 81 84 81 84 77 77 71 71 65 42 23 29 52 42 42 48 61 58 58 48 42 42 39 39 35 32 32 32 35 42 39 29 23 19 23 16 16 23 19
84 94 87 87 87 84 74 71 77 77 68 65 61 58 45 48 39 58 48 39 39 65 61 55 55 42 35 32 35 32 32 39 39 42 29 29 29 29 26 29 26 26 26
81 84 87 84 81 84 81 77 68 77 77 71 74 71 68 74 52 55 58 61 45 26 52 65 65 58 48 39 39 35 42 39 45 48 42 32 35 29 29 29 19 19 26
81 87 87 84 81 77 81 71 71 77 74 74 68 71 68 74 74 45 52 58 52 58 26 42 61 58 48 48 52 48 45 52 61 48 48 39 39 32 32 23 19 19 13
84 81 87 87 84 77 81 81 74 71 74 71 52 55 68 58 65 65 48 39 42 42 26 26 32 45 52 52 52 48 55 52 55 48 48 45 32 29 29 35 29 19 16
81 81 74 81 77 81 77 81 74 65 74 71 61 61 61 61 45 55 48 39 39 39 42 39 39 29 29 45 45 52 52 48 48 48 55 45 45 39 35 26 16 13 13
77 65 81 74 81 84 81 81 81 81 71 71 65 65 48 45 52 35 45 48 45 42 42 29 35 39 35 23 16 35 42 35 42 42 39 35 35 42 39 29 23 16 13
74 77 77 77 77 77 74 77 81 81 71 81 74 68 48 32 42 39 32 29 39 45 39 39 35 32 35 32 29 13 32 32 32 32 32 35 32 32 32 32 26 19 13
68 65 71 65 65 74 71 71 71 77 74 71 81 74 55 55 42 42 39 29 32 35 32 23 29 32 26 26 23 16 10 19 32 32 26 29 32 29 19 16 16 10 13
68 65 68 65 65 71 74 71 74 81 77 68 61 65 58 55 48 35 29 29 32 29 32 32 26 19 23 26 23 19 10 10 19 23 29 26 29 32 19 13 13 13 10
68 61 68 68 68 68 71 68 68 68 71 71 71 71 61 52 48 42 29 32 32 29 32 26 26 26 23 26 19 19 13 3 0 3 10 13 16 16 16 13 13 10 10
61 68 58 65 65 68 58 58 68 61 61 65 68 65 61 68 61 45 29 32 26 32 26 26 26 23 19 16 19 13 6 0 0 0 0 3 3 10 10 10 13 13 16
61 65 61 61 61 58 55 61 65 65 65 65 55 65 68 55 58 52 45 26 23 19 23 23 19 16 16 16 13 3 6 0 0 0 0 0 0 0 3 3 6 6 10
58 58 58 58 52 48 52 58 65 61 65 65 58 58 48 52 48 55 45 35 23 13 19 26 16 16 16 16 6 10 16 6 0 0 0 0 0 0 0 0 3 3 0
65 58 61 48 45 55 48 45 45 42 48 48 55 48 48 48 52 55 42 45 39 23 19 23 13 16 13 3 0 16 16 6 0 0 0 0 0 0 0 0 0 0 0
77 68 61 55 48 39 42 42 35 35 35 32 35 35 45 45 42 42 48 42 39 26 19 10 16 16 16 13 10 13 10 10 10 0 0 0 0 0 0 0 0 0 0
71 58 58 48 39 29 32 35 32 35 35 32 29 32 39 35 42 35 39 32 26 29 23 19 16 16 16 13 13 13 10 6 6 3 0 0 0 0 0 0 0 0 0
58 55 55 48 45 35 32 29 29 29 29 29 26 32 32 35 45 35 29 29 23 16 23 23 16 16 16 13 13 10 6 6 6 0 0 0 0 0 0 0 0 0 0
58 52 52 45 45 32 29 26 29 29 29 29 29 32 29 23 26 32 26 23 23 16 23 19 13 13 16 16 10 10 6 6 6 3 0 0 0 0 0 0 0 0 0
45 48 42 39 39 29 29 32 32 26 29 26 29 29 19 10 10 10 10 16 10 16 16 19 16 13 10 10 6 6 3 3 3 6 3 3 3 0 0 0 0 0 0
42 45 42 42 39 26 13 16 23 23 23 23 23 16 16 10 10 6 3 3 3 10 13 13 10 13 10 10 3 3 3 0 0 3 3 3 3 3 3 3 0 0 0
32 42 39 39 35 19 6 6 6 19 23 19 19 19 13 10 6 10 6 0 0 0 0 6 6 6 6 6 0 3 3 0 0 0 0 3 3 3 3 0 0 0 0
29 35 35 35 26 16 3 6 3 10 16 23 19 19 16 13 3 3 10 3 3 3 3 3 6 6 0 0 3 0 0 0 0 0 0 0 3 3 0 0 0 0 0
32 29 29 32 29 16 6 3 0 10 10 16 16 16 16 13 3 3 3 3 3 3 3 3 3 0 0 0 0 0 0 0 0 0 0 0 0 3 3 0 0 0 0
32 32 29 26 26 19 3 0 0 10 10 13 16 16 10 10 3 3 3 3 3 3 3 3 0 0 0 0 0 0 0 0 0 0 0 0 0 3 0 0 0 0 0

GEFSMA_con_cape1000_222.txt.gz
Probability
6 6 6 3 3 3 10 6 6 3 3 6 3 3 3 3 0 0 6 61 71 74 65 52 45 39 35 39 32 32 29 35 45 39 42 29 19 13 13 19 19 19 16
10 3 3 6 3 3 6 6 6 3 3 10 10 6 6 6 6 3 3 39 68 68 68 58 58 42 45 39 39 35 35 45 48 45 32 32 19 16 16 13 29 23 13
6 6 6 6 6 6 6 6 3 6 3 3 3 6 3 3 3 6 3 3 32 61 71 65 55 61 48 35 42 45 39 42 42 45 45 35 29 29 23 19 16 23 19
10 6 6 6 10 10 10 10 6 3 3 3 3 3 3 3 3 3 0 0 6 13 42 55 58 58 55 39 39 42 42 42 42 42 42 45 42 32 23 26 23 16 19
13 6 6 3 6 3 6 3 3 3 3 3 3 3 3 3 3 3 0 0 0 0 3 19 61 61 45 45 52 48 42 39 39 35 35 39 39 42 35 29 29 19 16
19 13 10 10 6 3 3 6 3 3 3 3 6 6 3 3 3 3 0 0 0 0 0 3 10 32 52 55 55 52 48 42 45 42 39 39 39 39 32 29 32 23 19
16 16 19 13 6 3 3 3 3 3 3 6 6 3 3 3 3 3 0 0 0 0 0 0 3 3 10 35 35 45 42 39 42 39 35 29 32 39 32 23 23 19 10
19 26 13 13 10 6 3 3 3 3 3 6 6 3 3 3 3 3 3 3 0 0 0 0 0 0 0 0 6 26 32 39 35 35 35 39 39 32 29 29 19 16 10
26 23 16 16 13 6 3 3 6 3 6 6 6 6 3 3 3 3 3 3 0 0 0 0 0 0 0 0 0 10 26 29 26 32 29 29 26 23 23 19 19 16 13
29 32 29 35 16 16 6 16 6 6 6 6 6 6 6 3 3 3 3 3 3 0 0 0 0 3 0 0 0 3 10 16 23 26 29 26 26 23 26 23 19 19 13
32 35 35 35 35 23 23 29 19 19 10 10 6 3 3 3 3 3 3 3 3 3 0 0 0 0 3 0 3 3 0 3 6 13 23 29 26 26 26 26 19 13 13
32 29 35 23 26 26 26 26 23 19 13 13 10 10 6 6 3 3 3 3 3 3 0 0 0 0 0 0 0 6 3 3 3 3 6 16 16 23 19 19 19 13 13
35 32 32 29 26 26 29 26 26 16 13 13 13 13 10 10 10 6 6 3 3 3 0 0 0 0 0 0 0 3 6 0 0 0 3 3 3 10 13 13 13 13 13
35 32 32 29 26 23 26 26 19 19 19 10 10 10 10 10 10 10 10 6 3 0 0 0 0 0 0 0 0 0 0 0 0 0 0 0 3 3 3 6 10 10 6
35 29 29 29 26 23 26 23 23 23 16 13 10 10 10 10 6 6 6 6 6 3 0 0 0 0 0 0 0 0 0 0 0 0 0 0 0 0 0 0 0 0 0
32 26 26 26 23 23 19 19 19 16 16 13 10 10 10 6 6 6 6 6 6 6 3 0 0 0 0 0 0 0 0 0 0 0 0 0 0 0 0 0 0 0 0
29 26 26 26 23 23 19 19 19 16 13 10 10 10 6 6 6 6 6 6 6 3 6 3 0 0 0 0 0 0 0 0 0 0 0 0 0 0 0 0 0 0 0
26 26 23 23 19 19 19 19 19 19 13 10 10 6 6 6 6 6 6 6 6 6 6 6 0 0 0 0 0 0 0 0 0 0 0 0 0 0 0 0 0 0 0
26 23 23 16 16 19 19 19 19 16 10 10 6 6 6 6 6 6 6 6 6 6 3 3 3 0 0 0 0 0 0 0 0 0 0 0 0 0 0 0 0 0 0
26 19 19 23 19 19 16 16 16 13 10 6 3 3 3 3 3 3 6 3 3 3 3 3 3 0 0 0 0 0 0 0 0 0 0 0 0 0 0 0 0 0 0
23 19 19 16 16 16 16 16 16 10 6 6 6 6 6 6 0 3 3 3 0 3 3 6 6 3 0 0 0 0 0 0 0 0 0 0 0 0 0 0 0 0 0
23 19 19 19 16 19 13 16 16 6 3 6 6 3 3 3 3 3 3 3 3 3 3 3 3 3 0 0 0 0 0 0 0 0 0 0 0 0 0 0 0 0 0
26 23 19 19 16 13 10 3 3 3 3 0 0 3 3 3 3 3 3 3 0 0 0 3 3 0 0 0 0 0 0 0 0 0 0 0 0 0 0 0 0 0 0
29 29 26 19 16 6 3 3 0 0 3 3 0 3 3 3 3 3 3 3 3 3 0 0 0 0 0 0 0 0 0 0 0 0 0 0 0 0 0 0 0 0 0
26 29 19 16 13 3 0 0 0 0 0 0 0 0 3 6 3 3 3 3 3 3 3 0 0 0 0 0 0 0 0 0 0 0 0 0 0 0 0 0 0 0 0
23 23 19 19 16 6 0 0 0 0 0 0 0 0 3 3 6 3 3 3 3 3 3 3 0 0 0 0 0 0 0 0 0 0 0 0 0 0 0 0 0 0 0

GEFSMA_con_cape1000_228.txt.gz
Probability
0 0 0 0 0 3 3 6 6 3 3 3 6 6 3 6 10 10 6 52 58 55 48 42 35 23 26 29 26 23 26 29 32 42 29 23 23 29 26 26 23 23 19
0 0 0 3 3 3 3 3 3 3 3 6 3 6 6 10 10 6 6 39 55 74 71 55 48 32 32 29 39 32 29 29 35 42 42 32 29 29 23 19 19 23 26
0 0 0 3 3 6 6 3 3 3 3 3 3 3 3 3 3 3 3 3 39 58 65 65 74 65 45 35 32 39 32 32 42 39 39 32 32 29 26 23 19 23 26
3 0 0 3 3 3 3 3 6 3 3 3 3 3 3 3 3 3 3 3 10 16 39 58 65 65 48 45 39 42 39 39 42 32 26 23 16 23 26 29 23 16 16
3 3 3 3 3 3 3 3 6 3 3 3 3 6 3 3 3 3 3 3 6 6 10 16 52 65 55 45 48 42 39 42 39 29 26 26 26 29 29 23 16 16 13
3 3 3 3 3 3 3 3 3 3 3 3 3 3 3 3 3 3 3 3 3 0 3 3 16 29 35 48 45 45 42 42 45 42 32 32 29 39 35 32 29 16 13
6 3 3 3 3 3 3 3 3 3 3 3 3 3 3 3 3 3 3 3 3 3 3 0 3 10 16 29 29 42 45 42 39 39 32 32 26 29 35 29 23 23 16
13 10 6 3 3 3 3 3 3 3 3 6 6 3 3 3 3 3 3 3 3 3 3 0 3 6 6 6 3 16 26 29 29 26 29 26 26 23 26 23 23 16 13
10 10 10 10 6 3 3 3 3 3 3 6 6 3 3 3 3 3 3 3 3 3 3 3 0 0 0 0 3 3 10 26 26 26 23 23 23 19 13 16 23 23 13
10 13 13 6 6 6 10 6 3 3 6 6 6 3 3 6 6 6 3 3 3 3 3 3 3 3 0 0 0 0 3 6 13 23 26 26 23 23 16 16 19 23 19
13 19 16 10 10 13 10 3 3 6 6 6 6 6 6 3 3 6 6 0 0 0 0 3 0 0 0 0 0 0 0 3 3 6 16 26 26 26 23 23 26 26 19
13 19 19 16 19 19 13 3 3 0 3 3 3 3 3 3 6 3 6 6 3 6 3 0 0 0 0 3 0 0 0 0 0 3 3 6 10 19 19 16 16 16 16
23 23 19 13 13 10 10 10 6 10 6 6 6 6 6 6 6 6 6 6 6 6 3 3 0 0 0 6 3 0 0 0 0 0 0 3 3 3 13 13 19 19 16
26 23 19 19 19 13 13 10 13 13 16 13 10 10 10 10 10 6 6 10 10 6 3 3 0 0 0 0 0 0 0 0 0 0 0 0 0 3 3 3 6 6 13
26 23 23 23 23 16 16 13 10 19 19 19 13 10 10 10 10 6 6 6 10 10 3 3 3 0 0 0 0 0 0 0 0 0 0 0 0 0 0 0 0 0 0
19 19 23 19 19 16 19 19 19 19 19 19 10 10 10 10 10 10 10 6 6 6 6 3 3 3 0 0 0 0 0 0 0 0 0 0 0 0 0 0 0 0 0
23 19 19 19 19 16 16 16 16 16 19 19 10 10 10 10 6 6 6 6 6 6 6 3 3 3 3 0 0 0 0 0 0 0 0 0 0 0 0 0 0 0 0
23 23 19 19 19 16 16 16 16 16 16 16 6 6 10 10 6 6 6 6 6 3 3 3 3 3 3 0 0 0 0 0 0 0 0 0 0 0 0 0 0 0 0
19 19 19 16 19 16 16 16 16 16 16 16 16 10 6 6 3 3 0 3 3 3 3 3 3 3 3 3 0 0 0 0 0 0 0 0 0 0 0 0 0 0 0
19 19 19 19 16 13 13 13 13 13 13 10 10 6 3 6 0 0 0 0 0 0 0 0 0 0 3 3 0 3 3 3 0 0 0 0 0 0 0 0 0 0 0
23 19 19 19 19 13 13 13 13 13 13 6 6 6 3 3 0 0 3 3 0 0 3 3 0 3 3 3 3 3 3 0 0 0 0 0 0 0 0 0 0 0 0
19 19 19 19 16 16 13 6 10 10 10 10 6 6 6 0 0 0 0 0 0 3 3 3 3 3 3 3 3 3 0 0 0 0 0 0 0 0 0 0 0 0 0
19 19 19 16 16 16 10 10 6 13 13 13 10 6 3 0 0 0 0 0 0 0 0 3 3 3 3 3 3 3 0 0 0 0 0 0 0 0 0 0 0 0 0
19 19 19 16 16 16 13 3 3 6 10 13 13 6 0 0 0 0 0 0 3 3 3 0 3 3 3 3 3 3 3 0 0 0 0 0 0 0 0 0 0 0 0
19 16 19 16 16 13 10 3 0 6 6 6 6 0 0 0 0 0 0 0 3 3 3 3 3 3 3 0 3 3 0 0 0 0 0 0 0 0 0 0 0 0 0
23 16 13 13 13 13 10 3 0 6 6 6 6 0 0 0 0 0 0 0 0 0 0 3 3 3 0 0 0 0 3 3 3 0 0 0 0 0 0 0 0 0 0

GEFSMA_con_cape1000_234.txt.gz
Probability
55 39 52 55 35 35 35 42 35 29 26 19 10 13 16 13 10 16 35 35 39 48 48 48 45 42 39 39 29 26 26 29 35 39 29 19 19 23 19 16 16 13 16
71 52 55 61 45 35 32 39 42 39 32 26 16 13 16 16 19 32 29 42 42 42 48 52 52 48 35 29 35 32 26 23 26 29 29 32 26 26 23 32 26 26 16
71 58 55 42 29 26 52 55 42 42 39 26 23 23 32 19 26 32 35 42 48 55 48 52 55 52 42 39 39 42 39 23 32 35 39 32 29 26 23 23 23 23 23
77 87 61 55 48 42 42 48 45 42 42 42 39 42 39 65 35 45 39 42 42 29 42 48 48 52 45 35 35 48 45 32 29 32 26 29 26 19 19 19 19 19 23
65 68 68 74 65 58 58 35 42 52 55 55 52 55 45 45 45 29 32 32 42 42 45 45 52 52 48 45 35 39 45 45 39 29 26 23 26 23 23 23 23 16 16
71 61 58 68 52 58 68 68 55 61 65 58 26 26 48 29 39 35 29 26 26 23 29 35 52 52 42 42 35 29 35 35 42 42 39 32 23 29 32 26 19 16 16
68 74 58 71 58 55 55 61 61 48 55 58 48 45 32 26 32 32 42 42 29 29 32 39 42 52 58 45 32 26 19 23 32 32 32 26 23 19 16 19 16 16 19
61 48 61 65 55 65 65 61 71 52 52 58 48 39 35 35 42 26 45 35 23 26 26 26 45 48 48 52 23 19 23 26 26 26 19 19 19 19 16 13 16 16 16
61 55 55 61 68 58 61 71 71 65 52 58 52 45 32 42 42 29 32 26 26 29 23 23 32 39 42 42 42 13 16 16 23 19 23 19 16 16 13 13 10 16 19
58 55 52 65 65 58 71 65 48 61 68 55 48 45 35 32 32 26 29 16 26 32 23 23 26 32 29 35 29 13 16 13 10 13 13 19 16 16 19 10 19 19 26
55 55 58 65 68 65 61 61 58 58 61 52 55 45 45 45 29 45 32 26 19 19 23 29 23 19 19 26 32 10 10 10 6 10 13 13 13 13 13 13 16 19 26
68 58 55 55 68 68 68 65 61 61 55 55 55 45 45 39 35 32 29 29 32 13 19 26 13 16 19 16 13 10 10 6 3 3 3 6 13 16 10 13 16 13 16
65 61 48 61 65 65 61 65 61 55 52 58 58 52 48 35 29 29 29 26 29 16 16 10 13 10 13 13 13 10 6 3 0 0 0 3 3 6 6 13 16 16 13
52 55 55 58 61 55 42 61 55 52 48 48 45 58 48 35 39 35 29 29 29 26 23 19 6 13 10 10 6 3 13 3 0 0 0 0 0 3 3 3 3 6 13
48 55 55 55 61 58 58 61 52 55 48 45 52 58 55 48 52 42 39 39 35 35 23 26 13 13 13 13 3 13 13 6 3 0 0 0 0 0 0 0 0 0 0
55 48 52 52 58 58 52 52 42 52 48 48 48 55 52 42 39 45 35 45 42 35 42 26 13 6 16 3 3 10 13 6 3 0 0 0 0 0 0 0 0 0 0
58 48 52 55 58 48 52 52 35 39 42 39 39 32 45 42 45 45 42 35 35 39 39 26 16 13 19 16 10 13 13 13 13 3 0 0 0 0 0 0 0 0 0
55 55 55 55 48 45 45 39 39 32 35 32 32 29 32 29 42 39 39 32 35 39 35 23 13 10 19 19 19 19 10 6 13 6 0 0 0 0 0 0 0 0 0
58 55 61 61 52 42 42 39 32 35 35 32 32 32 29 32 42 32 35 32 29 16 23 23 10 13 13 13 13 13 10 13 10 6 3 0 0 0 0 0 0 0 0
58 61 58 55 48 42 35 39 32 32 29 26 26 23 23 26 26 26 23 26 29 26 23 19 10 10 10 10 16 13 13 13 10 6 6 6 0 0 0 0 0 0 0
42 48 39 45 45 35 29 32 32 26 32 23 23 19 19 19 16 16 13 16 16 19 16 16 10 10 10 10 6 6 3 6 13 6 10 6 6 6 0 0 0 0 0
45 45 42 39 35 26 16 16 19 26 26 23 16 19 16 13 13 6 6 6 10 16 16 16 3 3 16 10 6 6 3 3 3 6 6 10 10 6 10 6 0 0 0
48 48 42 45 39 29 13 13 6 26 19 19 19 19 16 13 13 13 10 0 3 3 3 16 10 10 10 10 10 6 6 6 6 3 6 6 10 10 10 3 0 0 0
55 52 48 42 39 29 13 3 0 13 23 23 23 19 23 23 16 16 16 13 13 10 3 3 13 13 10 13 13 6 6 6 10 10 6 6 6 6 3 3 0 0 0
52 52 52 45 45 35 10 0 0 16 23 23 19 19 19 19 16 10 16 13 13 10 0 0 0 0 0 0 3 10 6 6 6 6 6 3 3 6 3 0 0 0 0
48 48 48 45 45 35 13 3 0 19 26 26 23 19 10 13 13 3 13 16 13 13 10 3 0 0 0 0 0 3 10 10 10 6 6 6 3 3 3 3 0 0 0

GEFSMA_con_cape1000_240.txt.gz
Probability
77 65 74 84 68 68 61 81 68 58 52 45 35 32 26 19 42 29 19 52 65 68 45 45 39 32 35 32 29 23 26 32 32 42 42 39 32 26 26 23 26 26 26
84 84 81 81 74 68 71 74 74 58 65 65 42 32 32 29 39 42 39 45 55 61 61 45 48 39 39 39 32 32 29 26 26 42 42 35 32 29 26 26 26 26 26
84 90 81 77 77 81 81 84 65 55 55 55 52 45 39 42 39 48 42 32 39 52 58 61 61 55 42 39 35 42 32 19 23 35 29 39 32 29 29 23 26 29 26
87 90 84 81 87 84 84 84 81 77 71 71 71 61 55 52 45 48 48 48 39 29 42 52 61 61 52 48 39 42 39 35 35 26 26 35 29 29 29 23 26 23 26
77 81 84 81 84 84 84 71 77 68 77 74 68 65 65 61 48 35 35 32 39 32 32 42 58 55 45 45 35 39 45 45 42 29 26 29 29 26 26 19 19 16 19
74 84 77 74 77 81 81 81 81 71 71 68 39 45 58 48 55 48 39 32 35 26 29 23 35 35 45 42 42 39 39 39 48 39 42 35 29 29 19 13 13 19 19
68 68 61 68 74 77 77 74 77 65 68 65 61 58 58 52 52 52 52 45 42 39 35 42 35 39 32 45 39 45 42 39 42 35 35 39 29 29 19 6 10 13 6
68 58 74 68 71 74 74 74 77 71 65 65 68 48 48 42 45 39 45 45 35 42 32 32 39 42 42 29 16 32 39 32 35 32 39 29 19 19 16 13 10 6 10
71 77 71 71 84 74 71 74 71 68 65 61 61 58 48 39 42 45 42 39 39 39 32 35 35 39 29 39 16 16 19 26 26 19 19 16 16 16 16 16 13 6 10
74 74 77 74 84 74 81 74 68 74 65 58 65 61 55 55 45 39 45 42 42 39 32 26 26 35 39 29 19 10 16 13 19 10 10 16 16 13 13 13 13 13 6
74 74 71 71 74 74 71 71 71 65 65 71 68 61 55 58 52 45 39 42 39 35 32 29 32 29 29 29 19 6 10 6 6 6 10 10 10 16 16 13 10 10 10
74 74 74 68 71 71 68 71 74 71 65 65 65 58 58 65 58 52 45 42 39 39 39 32 29 29 29 26 13 10 6 6 6 6 10 13 10 10 16 13 13 13 13
71 77 74 68 71 71 68 68 65 68 68 68 61 61 61 55 55 52 45 42 42 35 39 32 32 29 19 16 13 10 10 6 0 0 0 6 6 10 10 10 10 10 13
68 68 68 71 68 68 68 71 71 68 65 61 55 58 65 58 58 55 48 45 32 26 32 35 35 32 23 13 10 6 10 6 3 0 0 0 0 6 6 6 6 3 3
65 61 68 68 71 65 74 65 65 68 65 65 61 61 65 61 61 52 48 48 42 26 26 26 32 32 26 19 10 6 10 6 3 0 0 0 0 0 0 0 3 3 0
71 68 65 65 65 65 74 71 74 74 68 65 65 65 68 61 58 55 52 48 48 42 32 26 29 29 19 10 0 6 10 3 3 3 0 0 0 0 0 0 0 0 0
71 68 68 68 68 61 61 68 68 71 68 65 65 65 65 61 61 55 55 45 45 35 29 29 23 19 23 16 10 13 10 10 10 3 3 0 0 0 0 0 0 0 0
71 61 65 65 65 61 58 58 58 58 61 65 65 65 65 58 61 58 48 48 42 39 29 26 19 19 19 19 16 13 0 3 10 3 3 3 3 0 0 0 0 0 0
71 61 61 65 65 61 61 58 55 55 55 52 52 55 58 61 61 52 48 39 29 26 23 16 13 13 13 13 10 10 10 10 3 0 0 3 3 0 0 0 0 0 0
71 71 61 61 58 61 61 61 61 48 52 45 39 39 39 39 45 42 35 32 29 23 23 23 16 13 10 10 6 13 13 10 6 3 0 0 0 0 0 0 0 0 0
65 68 65 61 58 58 48 45 45 35 42 35 35 39 32 26 26 19 19 19 19 16 23 19 16 13 6 10 3 10 6 13 6 3 10 3 6 6 3 0 0 0 0
65 65 68 65 61 45 32 23 32 39 39 32 29 29 29 23 13 13 13 13 13 16 16 19 19 13 10 13 6 6 6 6 3 6 10 10 10 10 6 6 3 0 0
71 71 68 61 55 39 29 16 16 32 39 39 39 32 19 13 10 13 13 10 10 3 10 13 16 19 16 13 10 10 6 6 6 3 6 3 6 6 6 6 3 0 0
71 71 68 58 58 42 29 13 6 16 35 39 39 29 32 26 13 16 16 13 16 13 6 6 10 13 13 6 10 6 6 6 6 6 6 3 3 6 6 6 3 3 0
68 61 65 61 58 45 19 10 6 19 32 32 35 29 29 23 16 13 13 16 16 16 6 6 6 6 6 6 3 6 6 3 3 0 6 6 6 10 10 10 6 3 0
65 61 58 65 61 55 19 13 3 16 23 26 29 26 16 10 6 3 16 23 19 16 19 10 3 3 3 0 0 3 3 3 3 3 10 6 3 6 6 6 6 3 0

GEFSMA_con_cape1000_246.txt.gz
Probability
3 3 3 3 3 6 6 6 6 6 3 6 6 3 3 3 3 3 10 58 74 71 65 55 58 52 45 48 39 35 32 35 39 42 39 26 26 26 26 23 23 23 29
3 3 3 3 3 3 3 6 6 0 0 3 0 3 3 3 3 3 3 29 71 71 71 61 48 58 52 48 45 42 45 39 35 42 39 35 32 26 23 23 29 32 29
3 3 3 3 3 6 3 3 3 3 0 0 0 3 3 3 0 3 3 3 19 61 68 71 61 61 65 58 48 48 52 48 39 42 39 29 32 32 29 23 29 32 29
3 3 6 6 10 6 3 0 0 0 0 0 0 3 0 0 0 0 3 3 6 6 29 61 65 68 55 48 35 42 48 45 39 39 39 32 32 32 32 29 35 35 26
6 3 3 3 6 6 3 6 0 0 0 0 0 3 0 0 3 6 0 0 0 0 3 26 58 55 45 42 35 35 35 39 42 29 29 29 29 32 32 23 32 26 26
10 6 3 6 10 3 6 0 3 3 0 0 0 3 3 0 3 0 3 3 3 3 3 0 23 45 45 58 58 45 42 42 32 39 35 29 29 32 26 23 19 13 10
23 16 19 13 10 10 6 3 6 3 0 0 0 0 0 0 0 0 0 3 6 3 6 3 0 3 10 52 52 45 42 42 42 42 48 39 35 26 16 23 16 13 13
19 26 19 13 13 13 6 10 6 3 3 3 0 0 0 0 0 0 0 3 6 10 6 6 3 3 0 3 13 35 39 35 26 32 35 35 35 23 16 13 19 6 6
26 29 23 13 10 13 10 10 13 13 6 6 3 3 0 0 0 0 0 0 0 3 3 3 3 3 3 3 3 6 23 23 26 29 35 32 29 16 13 10 13 13 6
32 23 19 23 26 19 19 16 13 13 13 6 3 3 3 0 3 0 0 0 0 6 3 3 3 3 3 3 0 3 6 10 26 29 29 23 26 16 16 13 16 13 13
29 26 29 23 16 19 19 13 16 10 10 10 6 6 10 3 0 3 3 3 0 0 0 3 0 0 0 0 0 0 0 0 6 19 19 23 19 19 16 19 16 16 13
23 29 32 26 23 19 16 13 19 16 13 16 13 10 10 3 6 6 6 6 3 0 0 0 0 0 0 0 0 0 3 0 0 3 6 13 13 16 13 13 13 13 16
26 29 29 19 19 16 16 13 16 19 19 16 16 16 13 10 3 6 6 6 3 3 6 3 0 3 0 0 0 3 3 0 0 0 0 0 0 6 13 13 16 16 10
35 35 26 23 19 16 19 19 19 19 19 19 19 19 19 16 10 6 6 6 6 3 6 6 3 3 3 3 0 0 0 0 0 0 0 0 0 0 0 0 3 6 6
42 35 29 29 23 29 23 19 23 23 23 19 19 19 19 16 10 10 6 6 6 3 3 3 6 3 3 3 3 0 0 0 0 0 0 0 0 0 0 0 0 0 0
35 39 29 29 26 29 26 29 29 29 23 19 19 19 16 16 13 10 10 10 6 6 6 6 6 3 3 3 3 0 0 0 0 0 0 0 0 0 0 0 0 0 0
39 29 29 26 23 26 26 26 29 26 23 23 26 19 16 16 16 10 10 10 10 6 6 6 6 3 3 3 3 0 0 0 0 0 0 0 0 0 0 0 0 0 0
32 29 26 26 23 26 23 23 29 26 19 19 19 13 16 13 13 10 10 10 6 6 10 10 6 3 3 3 3 0 0 0 0 0 0 0 0 0 0 0 0 0 0
32 29 32 32 23 29 23 23 26 23 16 16 19 16 16 13 13 13 10 10 10 10 10 10 10 6 3 3 3 3 0 0 0 0 0 0 0 0 0 0 0 0 0
39 29 29 32 35 32 29 26 23 19 19 19 19 16 19 16 16 13 10 6 6 10 10 10 10 10 3 3 3 3 0 0 0 0 0 0 0 0 0 0 0 0 0
42 39 35 39 39 35 35 32 26 23 16 16 16 16 13 16 16 13 13 10 6 6 6 10 10 6 3 3 3 3 0 0 0 0 0 0 0 0 0 0 0 0 0
39 35 35 35 35 39 32 23 26 23 19 16 13 13 13 13 13 13 13 10 10 6 6 6 6 10 3 3 3 3 3 0 0 0 0 0 0 0 0 0 0 0 0
39 39 32 32 26 32 23 16 13 19 23 16 13 13 10 10 10 10 10 3 6 6 6 6 6 6 10 3 3 3 3 0 0 0 0 0 0 0 0 0 0 0 0
35 32 32 32 26 26 16 10 13 13 19 19 10 10 10 10 10 6 6 6 6 10 6 6 6 6 10 6 3 3 3 3 0 0 0 0 0 0 0 0 0 0 0
32 26 26 29 26 23 13 10 3 10 13 13 13 10 10 10 10 6 6 6 6 6 0 0 3 3 3 3 6 3 3 3 0 0 0 0 0 0 0 0 0 0 0
26 29 19 19 23 16 6 3 3 10 13 13 13 10 10 10 10 6 6 6 6 3 3 0 0 0 0 0 0 6 3 3 0 0 0 0 0 0 0 0 0 0 0

GEFSMA_con_cape1000_252.txt.gz
Probability
3 3 3 3 3 3 6 6 3 6 3 3 3 10 6 6 6 6 6 32 42 61 52 45 32 35 35 32 35 29 26 29 35 35 35 26 19 23 19 16 16 26 23
3 3 3 3 3 3 0 3 3 3 3 3 6 6 6 3 3 3 10 29 45 58 58 65 52 48 42 35 42 42 39 45 48 42 39 35 26 16 23 23 16 29 26
3 3 3 3 0 0 0 0 3 3 3 3 3 0 6 10 3 3 3 19 26 45 55 55 58 52 48 39 39 39 42 45 39 39 39 39 42 35 35 26 35 35 29
3 3 3 0 0 0 0 0 0 3 3 0 0 0 3 6 10 3 6 6 13 19 35 52 58 58 52 45 42 39 42 39 35 35 32 29 19 35 29 23 26 26 26
3 3 3 0 0 0 0 0 0 0 0 0 3 3 3 3 3 6 6 6 3 13 16 19 42 55 48 52 45 45 42 32 32 29 29 29 19 29 26 29 26 26 23
6 3 0 0 0 0 0 0 0 0 0 0 0 0 0 0 3 3 3 3 0 0 3 6 26 32 35 42 42 39 32 39 35 32 26 26 26 26 19 19 19 19 13
6 3 0 0 3 3 6 3 3 6 3 0 0 0 0 0 0 3 3 3 3 3 6 10 10 13 23 26 32 39 35 32 32 23 23 23 23 19 19 16 13 10 10
3 6 3 3 3 3 3 3 3 3 3 3 6 6 0 0 0 0 0 3 6 3 10 6 3 10 10 13 6 19 32 32 29 26 26 32 29 26 23 19 16 10 10
6 3 6 6 6 6 6 6 10 10 6 3 3 3 3 3 3 3 0 0 0 0 3 10 10 3 3 3 10 6 26 23 16 19 26 32 32 23 23 19 10 6 6
10 13 10 10 6 6 6 6 6 10 6 6 3 3 3 3 3 3 3 3 3 3 6 6 10 10 6 3 3 3 10 6 13 19 19 23 19 19 16 13 13 10 10
10 6 13 10 6 6 6 10 10 6 6 10 6 6 3 3 3 3 6 6 6 3 3 6 6 6 6 3 3 3 3 3 3 6 13 13 10 10 13 13 13 10 19
10 6 6 13 16 10 10 10 6 6 10 6 6 6 10 6 6 6 6 6 6 6 6 6 6 3 3 3 3 3 3 3 0 0 0 3 10 10 10 10 10 10 16
10 6 10 19 19 13 10 10 13 10 13 13 10 10 10 10 6 6 10 10 6 6 6 6 10 10 10 10 6 3 6 0 0 0 0 0 3 3 6 10 10 13 16
10 10 10 16 16 10 13 10 13 13 13 13 13 16 16 13 13 10 10 10 10 6 6 6 6 6 10 10 3 0 3 0 0 0 0 0 0 0 0 0 3 3 0
10 10 13 23 16 16 16 16 13 10 13 13 13 19 19 19 16 13 10 10 10 10 6 6 6 6 6 6 3 3 3 3 0 0 0 0 0 0 0 0 0 0 0
16 23 26 26 23 16 16 16 16 16 16 16 16 16 19 19 19 13 13 10 10 10 10 6 6 6 6 3 3 3 3 3 0 0 0 0 0 0 0 0 0 0 0
23 23 23 23 19 16 16 16 16 19 19 19 16 16 16 16 16 16 13 13 6 10 10 10 6 6 6 6 6 3 3 3 3 0 0 0 0 0 0 0 0 0 0
23 26 23 19 19 16 16 16 16 19 16 16 16 16 16 16 16 13 10 10 10 10 10 6 10 10 10 10 6 3 3 3 3 3 0 0 0 0 0 0 0 0 0
29 29 26 26 23 19 16 16 16 16 19 19 16 16 19 16 16 13 13 10 10 6 6 10 6 10 10 10 6 3 3 3 3 3 0 0 0 0 0 0 0 0 0
26 23 23 26 26 23 16 16 16 16 19 19 19 16 19 16 16 16 13 13 10 3 6 6 6 6 6 6 6 6 3 3 3 3 3 0 0 0 0 0 0 0 0
26 26 19 19 19 19 19 23 19 19 19 19 16 16 16 16 16 16 13 10 10 10 10 6 6 6 6 6 6 6 6 10 3 3 3 3 0 0 0 0 0 0 0
29 26 26 23 19 16 16 13 16 19 19 19 16 16 16 16 13 10 0 3 3 10 10 10 10 10 10 6 6 6 3 3 3 3 3 3 0 0 0 0 0 0 0
32 29 32 29 26 23 13 10 10 13 13 16 16 19 16 19 6 10 6 0 0 0 0 6 6 6 10 10 6 3 3 3 3 6 3 3 0 0 0 0 0 0 0
29 29 29 26 23 19 16 10 3 6 13 16 16 13 19 23 19 10 10 6 6 6 3 0 6 6 6 6 3 0 0 0 6 6 0 3 3 0 0 0 0 0 0
26 26 19 23 23 23 10 6 3 6 13 13 13 10 13 13 10 3 6 6 6 6 6 0 0 3 0 0 0 0 0 0 0 3 3 3 0 0 0 0 0 0 0
19 19 16 16 16 16 13 6 3 10 13 10 13 10 10 10 10 0 3 6 6 6 6 6 3 0 0 0 0 0 0 0 0 3 0 0 0 0 3 0 0 3 0

GEFSMA_con_cape1000_258.txt.gz
Probability
32 16 39 42 35 29 29 29 26 39 32 26 29 23 32 29 19 13 32 35 42 42 35 35 39 35 32 39 32 26 26 19 29 26 29 16 19 19 19 23 26 23 23
39 32 39 45 35 29 29 32 42 35 35 35 35 29 29 19 19 29 23 35 35 48 48 45 39 32 29 29 26 26 39 35 39 32 32 35 26 26 19 23 26 29 26
45 42 39 42 39 29 39 42 35 35 35 26 26 32 29 29 26 32 32 32 32 32 45 48 39 42 45 45 35 26 35 39 42 35 29 29 26 26 26 26 26 23 23
48 48 35 26 39 39 29 45 45 29 35 26 32 32 26 39 29 32 29 35 32 26 39 45 42 45 39 45 39 42 42 39 48 39 32 35 26 26 23 16 16 19 19
45 48 45 39 45 42 45 35 39 39 39 48 35 39 35 35 35 26 26 26 26 26 32 45 42 42 42 42 35 35 39 39 39 29 35 29 29 29 23 19 16 13 16
42 45 52 48 32 32 48 48 48 52 48 55 26 35 35 39 45 29 26 19 19 26 19 35 48 45 48 42 35 35 35 35 29 23 29 29 16 19 29 16 10 10 13
48 55 45 48 48 39 42 35 42 45 52 55 45 39 29 32 32 35 32 32 23 16 23 32 42 42 48 32 29 29 32 29 29 29 29 23 19 26 29 16 13 6 3
58 52 58 42 42 65 55 52 58 52 42 42 42 35 29 32 42 16 32 32 26 29 32 26 42 35 45 48 32 26 29 35 32 29 32 32 35 29 26 23 16 10 10
55 55 55 52 48 52 58 55 55 58 45 39 42 39 29 23 26 29 35 35 35 39 35 29 35 39 42 52 45 23 32 35 26 23 23 32 35 32 23 19 16 16 13
52 48 55 52 48 45 55 48 45 52 61 45 45 45 32 29 29 32 29 26 32 35 29 16 29 39 42 42 35 26 23 23 26 19 23 19 23 26 23 19 16 16 13
52 42 48 48 55 52 52 55 55 61 61 42 42 35 48 52 42 32 29 29 26 29 32 35 42 39 35 39 39 29 16 16 16 19 13 16 19 23 23 19 16 16 16
61 48 48 55 55 55 52 58 61 58 61 58 58 45 48 39 42 32 35 29 29 26 26 26 29 39 39 39 29 19 16 3 3 3 10 13 16 16 13 10 13 16 16
55 58 48 52 55 48 48 58 61 55 61 65 65 65 48 45 42 39 45 32 26 23 29 26 26 26 26 35 39 10 10 6 3 0 3 6 6 10 10 10 13 13 10
48 68 61 58 52 52 48 52 55 61 65 61 58 68 68 52 55 48 52 42 35 23 29 23 29 32 35 42 19 6 23 6 3 0 0 0 3 3 3 6 10 6 6
61 65 65 65 58 52 55 52 52 61 65 65 58 65 68 61 65 61 61 55 45 29 32 32 32 39 45 42 16 23 32 13 6 0 0 0 0 0 0 0 0 0 0
71 65 68 65 61 61 55 58 58 55 58 58 68 68 68 55 65 65 65 55 48 39 29 32 39 29 35 16 13 26 29 13 6 0 0 0 0 0 0 0 0 0 0
61 65 65 58 61 61 61 65 61 55 58 55 52 48 61 65 65 61 48 42 42 35 39 32 29 35 32 32 19 26 29 23 16 3 0 0 0 0 0 0 0 0 0
58 61 61 58 58 52 55 61 58 55 55 52 55 52 48 52 58 52 52 48 48 42 42 32 26 32 32 29 32 29 19 19 19 6 3 0 0 0 0 0 0 0 0
55 55 58 52 52 48 48 55 52 55 55 55 55 55 55 58 55 52 52 42 39 26 35 29 29 29 23 26 26 19 16 23 19 13 3 3 0 0 0 0 0 0 0
48 48 45 45 48 42 45 45 45 52 52 52 55 55 48 52 58 55 45 52 45 39 35 29 26 26 26 23 16 16 19 26 26 13 10 3 3 3 0 0 0 0 0
45 45 42 39 39 42 39 45 45 45 45 45 45 52 48 45 39 45 39 48 42 29 26 29 23 23 23 19 16 23 19 26 26 19 19 19 13 10 6 3 0 0 0
48 42 42 42 42 39 29 23 35 39 45 42 42 42 39 35 26 13 16 19 29 39 29 29 23 23 23 23 26 19 19 19 19 19 16 19 19 23 19 13 3 0 0
45 45 45 45 45 42 23 6 3 29 35 42 42 45 32 23 23 32 19 10 10 0 6 42 29 23 32 29 23 19 26 23 23 16 16 13 19 19 23 6 3 3 0
45 45 45 45 48 42 23 6 3 23 32 39 35 39 39 32 29 26 29 23 29 23 19 19 26 32 23 42 35 29 23 26 26 26 19 10 13 19 10 16 3 0 0
45 42 45 48 48 48 23 10 0 35 32 32 32 35 39 35 29 16 23 29 32 32 16 6 13 13 13 6 10 16 16 16 19 16 16 13 13 10 10 10 10 0 0
45 42 42 42 45 45 26 10 0 29 29 32 39 32 19 19 16 6 23 29 35 35 35 23 13 6 3 10 0 3 16 19 19 16 16 16 19 16 16 13 16 10 0

GEFSMA_con_cape1000_264.txt.gz
Probability
65 58 65 65 52 48 35 42 42 39 42 45 39 39 42 42 35 29 23 32 39 45 45 39 35 32 32 32 32 26 23 19 29 32 35 29 19 23 23 19 26 26 26
68 68 61 71 61 58 52 45 48 48 48 52 48 42 42 32 32 35 26 35 39 45 42 42 35 39 35 35 32 32 26 23 26 29 26 26 26 19 19 23 29 23 26
65 65 71 68 71 71 61 58 48 52 48 48 52 48 55 42 39 42 32 32 29 42 45 55 45 45 45 39 39 42 29 32 39 39 35 26 32 29 26 19 26 29 26
65 71 71 68 74 71 65 61 58 55 58 55 55 55 55 55 55 48 45 48 32 16 29 45 58 55 48 42 42 32 35 39 42 39 39 42 35 35 29 29 29 23 19
58 61 74 74 68 71 71 48 65 58 58 58 55 58 48 52 48 39 39 45 35 29 19 26 52 55 45 42 42 42 45 42 42 35 35 35 39 39 32 29 26 16 19
55 58 68 68 68 71 71 61 61 61 58 55 35 45 55 48 45 48 39 29 26 26 16 16 29 32 48 48 45 39 42 42 39 35 32 32 35 32 13 16 13 13 3
68 68 74 74 74 71 68 65 61 58 55 58 55 52 42 48 39 45 42 35 32 23 26 32 35 32 19 45 48 48 39 35 39 39 39 32 29 26 16 13 10 6 6
61 58 74 77 77 77 77 74 65 58 58 58 58 48 39 48 39 26 42 35 26 29 26 26 35 35 35 26 16 35 42 32 32 35 35 32 32 26 23 19 16 10 6
65 74 68 68 74 71 77 68 65 65 58 61 55 55 48 42 45 45 39 35 39 39 35 32 35 42 42 42 26 26 39 42 42 39 32 35 39 39 26 26 26 23 13
61 61 58 61 68 71 74 65 61 65 58 58 58 58 52 52 48 45 39 39 35 39 35 35 32 39 39 39 32 26 26 29 35 35 32 35 32 32 26 35 26 26 26
68 65 68 65 65 68 68 65 74 68 71 58 58 58 48 48 45 48 42 39 35 39 35 35 35 32 39 39 35 23 19 19 23 26 29 32 29 29 29 26 23 26 29
71 68 65 68 71 68 65 71 65 71 68 65 68 61 52 45 42 45 35 35 35 39 39 39 35 32 42 35 29 19 13 10 13 10 13 16 19 26 26 23 19 19 19
77 74 65 68 61 65 65 68 65 71 77 68 65 52 52 55 55 52 42 32 39 35 35 42 42 42 39 32 29 23 16 6 3 3 6 10 16 16 13 16 16 16 16
68 71 71 61 61 61 58 74 71 65 68 68 58 58 61 61 55 58 55 45 35 35 42 35 42 42 39 35 23 13 16 10 3 3 3 3 3 10 13 13 13 13 10
68 74 68 65 61 65 71 71 65 65 65 61 58 65 65 58 55 52 55 55 48 32 35 35 42 48 45 35 16 16 23 16 6 3 0 0 0 0 0 3 0 0 0
71 61 65 65 68 61 65 68 68 68 68 65 65 61 61 55 61 61 55 58 55 45 39 52 45 39 39 19 13 19 26 16 10 0 0 0 0 0 0 0 0 0 0
71 74 71 71 71 71 68 68 68 61 61 58 58 55 55 58 61 65 61 58 58 58 48 45 45 45 39 35 16 23 29 19 19 6 0 0 0 0 0 0 0 0 0
74 71 71 68 65 65 68 61 58 58 58 58 58 55 52 58 61 58 58 61 58 55 48 48 42 39 39 32 29 29 26 19 19 13 3 3 0 0 0 0 0 0 0
65 68 68 65 61 55 55 55 52 58 58 58 55 55 55 58 65 61 68 55 55 42 55 52 48 42 42 39 32 29 26 23 19 13 10 3 3 0 0 0 0 0 0
58 58 58 58 58 52 52 52 48 48 52 55 58 58 58 58 65 61 58 65 58 58 55 52 52 32 42 35 35 29 26 26 23 13 13 10 6 3 0 0 0 0 0
55 58 52 48 48 48 45 42 42 42 45 52 52 52 48 42 45 45 42 52 48 52 48 48 48 39 32 32 29 29 29 26 26 23 16 13 10 6 3 3 0 0 0
58 55 52 52 52 45 35 32 42 42 42 39 45 45 48 35 26 26 23 23 29 42 45 35 39 39 42 35 32 29 26 23 23 23 19 16 10 13 19 10 6 3 0
52 52 52 55 55 52 32 16 13 42 45 39 42 42 35 35 29 35 23 10 10 10 16 29 35 35 48 42 32 26 26 23 23 23 26 16 16 13 13 10 3 3 0
58 58 58 55 55 48 26 10 6 23 39 42 42 39 35 39 32 35 32 26 23 23 19 13 23 29 29 39 42 35 35 32 29 26 19 16 16 19 10 6 6 3 3
58 58 58 58 58 52 19 10 3 32 39 42 45 35 35 35 26 19 29 35 39 39 23 10 16 19 16 16 16 19 23 23 16 16 19 16 16 16 19 13 10 3 3
58 58 58 58 55 52 19 13 3 29 29 32 39 39 23 29 16 16 26 35 39 39 35 29 13 10 10 10 0 6 19 19 16 16 16 16 16 16 6 10 13 10 6